SCP
0 0 0 0 0 0 0 0 0 0 0 0 0 0 0 0 0 0 0 0 0 0 0 0 0 0 0 0 0 0 0 0 0 0 0 0 -0 -0 -0 0 0 0 0 0
0 0 0 0 0 0 0 0 0 0 0 0 0 0 0 0 0 0 0 0 0 0 0 0 0 0 0 0 -0 0 0 0 0 0 0 0 0 -0 0 0 0 0 0 0
0 0 0 0 0 0 0 0 0 0 0 0 0 0 0 0 0 0 0 0 0 0 0 0 0 0 0 0 0 0 0 0 0 0 0 0 0 0 -0 -0 0 0 0 0
0 0 0 0 0 0 0 0 0 0 0 0 0 0 0 0 0 0 0 0 0 0 0 0 0 0 0 0 0 0 0 0 0 0 -0 0 -0 -0 -0 -0 -0 -0 0 0
0 0 0 0 0 0 0 0 0 0 0 0 0 0 0 0 0 0 0 0 0 0 0 0 -0 0 0 0 0 0 0 0 0 0 0 0 -0 -0 -0 -0 -0 -0 -0 -0
0 -0 0 0 0 0 0 0 0 0 0 0 0 0 0 0 0 0 0 0 0 0 0 0 -0 0 0 0 0 0 0 0 0 0 0 0 0 -0 0 0 -0 0 0 0
0 0 0 0 0 0 0 0 0 0 0 0 0 0 0 0 0 0 0 0 0 0 0 -0 0 0 0 0 0 0 0 0 0 0 0 0 0 0 0 0 -0 0 0 0
0 0 0 0 0 0 0 0 0 0 0 0 0 0 0 0 0 0 0 0 0 0 0 0 0 0 0 0 0 0 0 0 0 0 0 0 -0 0 0 0 0 0 0 0
0 0 0 0 0 0 0 0 0 0 0 0 0 0 0 0 0 0 0 0 0 -0 0 0 0 0 0 0 0 0 0 0 0 0 0 0 0 0 0 0 0 0 0 0
-0 0 0 0 0 0 0 0 0 0 0 0 0 0 0 0 0 0 0 0 0 -0 0 0 0 0 0 0 0 0 0 0 0 0 0 0 0 0 0 0 0 0 0 0
0 0 0 0 0 0 0 0 0 0 0 0 0 0 0 0 0 0 0 0 0 -0 -0 0 0 0 0 0 0 0 0 0 0 0 0 0 0 0 0 0 0 0 0 0
0 0 0 0 0 0 0 0 0 0 0 0 0 0 0 0 0 0 0 0 0 -0 -0 0 0 0 0 0 0 0 0 0 0 0 0 0 0 0 0 0 0 0 0 0
0 0 0 0 0 0 0 0 0 0 0 0 0 0 0 0 0 0 0 0 0 0 -0 -0 0 0 0 0 0 0 0 0 0 0 0 0 0 0 0 0 0 0 0 0
0 0 0 0 0 0 0 0 0 0 0 0 0 0 0 0 0 0 0 0 0 0 -0 0 0 0 0 0 0 0 0 0 0 -0 0 0 0 0 0 0 0 0 0 0
0 0 0 0 0 0 0 0 0 0 0 0 0 0 0 0 0 0 0 0 0 0 -0 0 0 0 0 0 0 0 0 0 0 -0 0 0 0 0 -0 -0 -0 -0 -0 -0
0 0 0 0 0 0 0 0 0 0 0 0 0 0 0 0 0 0 0 0 0 0 0 -0 0 0 0 0 0 0 0 0 0 0 0 0 0 -0 -0 -0 -0 -0 -0 -0
0 0 0 0 0 0 0 0 0 0 0 0 0 0 0 0 0 0 0 0 0 0 0 0 0 0 0 0 0 0 0 -0 -0 -0 0 -0 -0 -0 -0 0 0 0 0 0
0 0 0 0 0 0 0 0 0 0 0 0 0 0 0 0 0 0 0 0 0 0 0 0 0 0 0 -0 0 0 -0 -0 0 0 -0 0 0 0 0 0 0 0 0 0
0 0 0 0 0 0 0 0 0 0 0 0 0 0 0 0 0 0 0 0 0 0 0 -0 0 0 0 0 -0 -0 -0 -0 -0 0 0 0 0 0 0 0 0 0 0 0
0 0 0 0 0 0 0 0 0 0 0 0 0 0 0 0 0 0 0 0 0 0 0 0 -0 0 -0 0 0 -0 -0 -0 -0 0 0 0 0 0 0 0 0 0 0 0
0 0 0 0 0 0 0 0 0 0 0 0 0 0 0 0 0 0 0 0 0 0 0 0 -0 0 0 -0 0 0 0 0 0 0 0 0 0 0 0 0 0 0 0 0
0 0 0 0 0 0 0 0 0 0 0 0 0 0 0 0 0 0 0 0 0 0 0 0 0 0 0 0 0 0 0 0 0 0 0 0 0 0 0 0 0 0 0 0
0 0 0 0 0 0 0 0 0 0 0 0 0 0 0 0 0 0 0 0 0 0 0 0 0 0 0 0 0 0 0 0 0 0 0 0 0 0 0 0 0 0 0 0
0 0 0 0 0 0 0 0 0 0 0 0 0 0 0 0 0 0 0 0 0 0 0 -0 0 -0 -0 -0 0 -0 -0 0 -0 0 0 0 0 0 0 0 0 0 0 0
0 0 0 0 0 0 0 0 0 0 0 0 0 0 0 0 0 0 0 0 0 0 0 -0 0 0 -0 -0 -0 -0 -0 -0 -0 0 0 0 0 0 0 0 0 0 0 0
0 0 0 0 0 0 0 0 0 0 0 0 0 0 0 0 0 0 0 0 0 0 0 0 0 0 0 0 0 -0 -0 -0 -0 0 0 0 0 0 0 0 0 0 0 0
0 0 0 0 0 0 0 0 0 0 0 0 0 0 0 0 0 0 0 0 0 0 0 0 0 0 0 0 0 0 -0 -0 -0 0 0 0 0 0 0 0 0 0 0 0
Wind_Speed_500mb
29 26 20 16 12 16 21 13 7 16 21 8 6 2 3 7 9 8 9 5 11 18 19 14 11 12 19 49 43 32 15 9 13 40 23 4 8 19 11 9 6 6 7 7
33 28 23 17 11 13 20 18 6 9 14 5 4 7 4 6 7 10 5 8 6 11 9 14 8 12 26 55 45 12 19 6 14 16 2 2 17 40 35 33 10 5 10 5
35 30 26 18 11 9 14 8 5 5 12 9 1 6 3 8 10 16 10 18 20 11 10 14 14 30 21 58 58 14 37 7 13 13 27 20 19 40 45 34 7 12 10 19
37 34 28 22 13 7 7 4 2 2 5 4 7 3 3 7 9 5 12 8 2 15 11 31 9 15 42 29 16 29 11 9 15 28 35 18 35 41 40 42 34 13 18 22
40 35 32 25 17 10 6 2 3 2 2 3 7 4 3 8 8 5 7 5 17 12 14 22 46 35 31 19 13 32 7 8 24 9 8 23 22 45 31 47 45 19 20 28
42 39 37 28 22 14 6 6 3 2 3 2 3 1 6 9 22 7 15 19 24 20 15 37 58 61 55 41 34 17 10 11 15 11 15 15 12 47 26 34 44 23 23 19
47 44 39 33 27 20 15 6 3 3 2 2 4 6 17 17 15 11 23 28 7 17 63 62 34 34 30 27 26 27 18 21 6 11 17 10 13 37 20 22 52 52 36 30
51 45 42 37 31 24 18 8 5 4 2 4 9 9 15 27 18 10 13 10 24 41 34 9 12 8 10 9 10 13 7 6 9 8 11 2 42 45 28 13 33 51 40 40
55 47 47 42 35 27 20 10 9 4 5 3 6 5 8 7 7 10 1 17 22 32 6 6 10 8 8 14 32 12 22 8 1 9 11 22 37 56 75 11 35 61 54 41
59 53 50 44 38 30 22 11 11 6 3 3 2 1 4 9 6 5 6 20 21 30 8 6 8 7 5 11 16 17 15 10 20 20 12 9 41 69 35 20 12 53 51 45
68 58 56 48 44 33 25 14 13 10 5 3 4 6 4 7 3 4 16 9 13 12 10 7 6 6 5 4 7 15 12 13 10 9 14 14 67 25 16 19 29 34 49 49
70 67 62 54 46 35 27 18 13 13 7 3 3 10 10 9 7 2 10 4 5 8 5 6 4 5 7 8 6 13 8 7 6 13 6 6 29 32 31 28 27 40 41 42
75 74 62 56 47 37 29 18 11 14 8 0 4 9 6 8 9 5 3 3 4 2 5 4 3 3 2 7 6 7 2 12 4 4 5 12 33 27 30 35 34 34 39 44
74 71 62 56 49 38 27 20 12 16 4 5 4 12 9 8 7 8 5 2 1 2 3 2 3 2 5 5 6 4 2 11 7 8 7 6 28 29 22 23 28 33 38 45
69 74 64 59 49 38 26 19 16 20 9 6 2 8 15 13 8 9 6 4 2 1 2 2 2 3 4 6 3 5 5 1 3 4 2 6 6 11 14 21 29 31 35 41
80 75 67 59 45 34 23 10 23 28 21 2 2 5 1 7 11 10 8 4 4 3 3 3 5 3 3 3 4 6 6 12 14 13 12 15 14 13 16 21 24 27 33 38
84 75 63 52 45 37 21 6 5 30 20 5 4 5 2 11 11 7 4 4 6 6 2 5 4 4 2 2 5 18 18 15 18 16 19 9 12 7 19 22 25 26 34 37
85 75 67 56 42 33 23 11 12 22 14 6 3 1 4 14 7 6 6 4 3 4 2 3 4 5 5 7 17 22 24 24 24 24 20 16 25 22 19 18 21 26 32 32
89 83 66 47 30 18 19 20 16 20 11 7 9 8 7 17 8 5 6 5 5 5 4 5 4 3 8 18 31 37 36 29 27 25 25 27 25 25 22 18 20 21 30 29
92 78 41 17 27 15 22 15 11 14 11 12 12 10 5 16 13 7 7 3 2 2 5 2 4 7 23 25 27 36 39 34 36 39 33 31 30 24 22 20 21 21 25 27
86 30 15 37 46 22 12 7 7 8 5 15 12 14 11 17 8 7 11 5 2 2 6 6 5 7 13 40 36 41 37 34 36 32 24 23 22 25 25 24 23 22 21 21
59 40 56 51 16 8 7 5 1 7 9 18 20 13 12 14 11 8 9 4 4 6 7 5 6 7 15 44 46 44 40 39 40 37 28 29 28 27 25 24 25 27 26 25
74 23 17 14 10 5 15 15 8 5 24 28 23 13 13 12 8 11 6 6 8 5 3 7 9 13 31 49 49 45 42 45 45 40 35 33 33 31 26 26 27 26 27 29
17 19 13 13 8 11 11 8 8 15 18 53 41 21 10 9 7 7 9 4 4 2 3 12 7 31 42 53 48 42 42 44 42 39 39 37 34 34 33 31 29 28 28 25
13 16 13 12 11 7 16 24 26 23 56 61 27 16 9 4 7 1 8 6 8 13 10 7 15 26 45 59 56 48 47 49 48 47 44 41 38 34 33 32 29 27 25 24
16 12 10 12 12 5 19 24 26 55 67 31 12 10 6 3 10 6 15 12 12 8 7 10 16 29 44 52 50 43 42 44 45 44 42 39 36 33 31 31 30 29 27 24
7 5 10 11 9 22 24 30 34 70 43 7 12 10 13 10 5 5 9 11 7 12 17 14 17 29 43 48 47 45 46 47 46 45 43 39 37 34 32 31 32 32 29 26
Wind_Direction_500mb
227 229 235 249 280 316 329 344 326 334 353 34 50 24 281 306 292 302 285 273 282 288 318 294 303 290 315 346 348 329 324 294 290 298 293 253 56 2 301 272 189 226 220 251
223 223 228 238 268 314 337 318 300 330 2 61 0 298 268 257 298 311 298 286 258 315 341 319 300 301 329 316 338 330 354 300 301 326 182 179 10 349 326 300 231 232 336 353
220 219 221 225 242 300 333 327 345 351 61 80 335 353 320 307 271 277 274 286 307 360 293 258 280 301 303 320 309 283 340 260 260 267 281 304 335 359 2 8 37 337 27 354
215 216 216 216 222 262 321 24 272 340 355 51 337 111 343 293 334 252 319 314 124 329 305 303 247 289 312 310 288 348 315 280 280 279 276 271 27 4 16 20 1 41 0 20
213 213 214 211 213 234 252 246 220 115 110 310 316 112 275 310 325 280 297 214 299 312 279 276 296 313 314 293 318 331 321 276 315 291 353 88 53 16 13 22 11 7 25 36
212 211 211 206 210 218 229 216 234 263 121 106 11 352 326 306 335 272 260 313 315 305 291 309 290 281 276 268 294 310 295 320 326 290 326 318 23 13 4 21 24 355 21 25
210 209 208 204 208 217 228 227 218 142 266 225 207 329 312 291 300 274 297 319 326 297 308 312 295 263 257 263 269 267 294 317 283 296 321 59 16 12 353 352 26 14 11 10
207 208 205 204 209 216 228 219 196 173 232 227 301 295 298 304 299 280 299 323 319 318 323 336 341 349 7 314 255 312 273 296 314 318 359 352 6 357 341 348 30 11 8 11
204 205 204 204 209 216 221 218 211 201 146 204 270 332 313 307 325 321 294 339 347 356 285 351 11 13 297 326 335 311 331 246 294 323 47 26 350 342 334 242 36 357 8 20
203 202 201 204 210 213 218 219 210 201 172 251 176 89 339 315 314 264 327 344 350 8 334 25 27 331 190 356 334 333 336 356 23 7 53 54 353 341 0 53 331 345 15 27
206 196 198 204 212 210 214 222 215 212 190 242 234 236 232 295 29 348 333 347 17 359 35 13 6 344 318 304 308 333 355 341 8 3 35 17 352 351 47 349 359 14 31 37
201 196 202 201 206 209 213 218 219 220 224 217 233 247 241 221 220 19 10 99 51 10 325 23 310 353 352 302 352 350 31 18 1 31 59 5 12 34 28 28 35 32 40 51
194 201 200 194 203 206 214 220 227 208 238 177 207 237 228 207 186 155 22 75 72 88 11 353 308 310 314 349 15 292 112 16 50 163 58 45 35 40 44 41 50 63 65 70
199 198 190 193 201 206 211 220 231 207 201 127 226 222 221 207 176 169 166 166 10 356 34 353 314 341 46 333 303 299 315 328 11 82 94 180 19 30 38 61 69 71 79 81
198 188 187 195 198 202 208 222 232 217 230 142 180 238 237 224 186 178 176 201 249 340 236 217 272 341 330 232 272 247 10 77 19 102 84 88 359 28 68 75 71 77 83 86
185 181 188 193 194 196 198 223 231 217 213 166 98 225 11 131 160 171 168 202 242 228 243 240 258 273 261 307 275 152 136 129 137 155 125 113 97 95 101 95 89 93 95 92
176 182 183 188 193 192 189 205 223 191 185 180 88 186 174 145 150 170 184 234 246 208 241 233 243 223 198 242 239 173 180 174 153 147 146 141 182 144 109 103 100 103 102 100
174 178 179 186 186 192 207 216 147 163 180 174 137 136 168 168 173 173 173 186 219 246 235 254 267 282 188 246 227 178 178 175 174 174 187 177 157 149 133 119 105 114 107 101
175 176 172 171 178 187 202 194 199 199 211 179 198 169 196 162 167 158 145 181 223 237 229 170 192 231 226 216 182 191 189 181 178 166 161 158 160 156 149 144 138 138 123 123
169 160 153 158 158 170 162 167 193 206 214 214 218 154 131 160 167 172 139 170 238 204 236 210 158 256 250 211 198 192 189 190 181 173 173 177 178 170 159 150 148 145 131 124
158 157 140 147 145 144 167 158 189 183 247 204 174 173 141 171 146 168 197 190 152 78 254 127 265 277 218 198 192 183 185 184 183 183 186 176 177 172 168 164 158 147 131 123
163 149 126 129 160 141 129 198 173 205 222 167 154 149 146 146 148 134 161 135 44 237 142 73 273 248 191 181 180 181 187 189 187 186 185 178 176 174 173 170 166 157 150 147
133 118 150 155 156 133 180 195 231 218 174 175 152 136 149 131 143 95 119 115 221 140 70 231 229 179 179 179 183 184 185 187 189 190 186 184 179 174 170 168 160 159 160 158
135 144 149 195 180 233 192 184 155 151 165 154 141 118 134 140 119 139 105 237 69 355 264 235 235 203 184 180 182 185 184 184 184 185 181 178 178 174 172 172 170 166 165 161
136 160 197 194 175 147 156 140 132 132 151 145 122 98 134 123 95 111 103 44 251 204 231 230 200 187 183 183 183 182 182 182 181 180 178 179 179 179 176 170 171 167 170 171
159 179 111 128 131 143 153 154 142 150 152 141 127 125 94 198 134 113 206 145 225 243 214 226 193 186 183 183 182 182 181 182 179 178 182 182 179 178 178 175 176 176 177 181
169 118 170 155 102 169 164 160 160 158 157 154 132 120 193 118 72 246 197 205 220 183 183 185 185 188 182 182 184 183 182 183 182 182 182 181 183 184 186 189 188 186 183 184
Wind_Speed_850mb
29 26 20 16 12 16 21 13 7 16 21 8 6 2 3 7 9 8 9 5 11 18 19 14 11 12 19 49 43 32 15 9 13 40 23 4 8 19 11 9 6 6 7 7
33 28 23 17 11 13 20 18 6 9 14 5 4 7 4 6 7 10 5 8 6 11 9 14 8 12 26 55 45 12 19 6 14 16 2 2 17 40 35 33 10 5 10 5
35 30 26 18 11 9 14 8 5 5 12 9 1 6 3 8 10 16 10 18 20 11 10 14 14 30 21 58 58 14 37 7 13 13 27 20 19 40 45 34 7 12 10 19
37 34 28 22 13 7 7 4 2 2 5 4 7 3 3 7 9 5 12 8 2 15 11 31 9 15 42 29 16 29 11 9 15 28 35 18 35 41 40 42 34 13 18 22
40 35 32 25 17 10 6 2 3 2 2 3 7 4 3 8 8 5 7 5 17 12 14 22 46 35 31 19 13 32 7 8 24 9 8 23 22 45 31 47 45 19 20 28
42 39 37 28 22 14 6 6 3 2 3 2 3 1 6 9 22 7 15 19 24 20 15 37 58 61 55 41 34 17 10 11 15 11 15 15 12 47 26 34 44 23 23 19
47 44 39 33 27 20 15 6 3 3 2 2 4 6 17 17 15 11 23 28 7 17 63 62 34 34 30 27 26 27 18 21 6 11 17 10 13 37 20 22 52 52 36 30
51 45 42 37 31 24 18 8 5 4 2 4 9 9 15 27 18 10 13 10 24 41 34 9 12 8 10 9 10 13 7 6 9 8 11 2 42 45 28 13 33 51 40 40
55 47 47 42 35 27 20 10 9 4 5 3 6 5 8 7 7 10 1 17 22 32 6 6 10 8 8 14 32 12 22 8 1 9 11 22 37 56 75 11 35 61 54 41
59 53 50 44 38 30 22 11 11 6 3 3 2 1 4 9 6 5 6 20 21 30 8 6 8 7 5 11 16 17 15 10 20 20 12 9 41 69 35 20 12 53 51 45
68 58 56 48 44 33 25 14 13 10 5 3 4 6 4 7 3 4 16 9 13 12 10 7 6 6 5 4 7 15 12 13 10 9 14 14 67 25 16 19 29 34 49 49
70 67 62 54 46 35 27 18 13 13 7 3 3 10 10 9 7 2 10 4 5 8 5 6 4 5 7 8 6 13 8 7 6 13 6 6 29 32 31 28 27 40 41 42
75 74 62 56 47 37 29 18 11 14 8 0 4 9 6 8 9 5 3 3 4 2 5 4 3 3 2 7 6 7 2 12 4 4 5 12 33 27 30 35 34 34 39 44
74 71 62 56 49 38 27 20 12 16 4 5 4 12 9 8 7 8 5 2 1 2 3 2 3 2 5 5 6 4 2 11 7 8 7 6 28 29 22 23 28 33 38 45
69 74 64 59 49 38 26 19 16 20 9 6 2 8 15 13 8 9 6 4 2 1 2 2 2 3 4 6 3 5 5 1 3 4 2 6 6 11 14 21 29 31 35 41
80 75 67 59 45 34 23 10 23 28 21 2 2 5 1 7 11 10 8 4 4 3 3 3 5 3 3 3 4 6 6 12 14 13 12 15 14 13 16 21 24 27 33 38
84 75 63 52 45 37 21 6 5 30 20 5 4 5 2 11 11 7 4 4 6 6 2 5 4 4 2 2 5 18 18 15 18 16 19 9 12 7 19 22 25 26 34 37
85 75 67 56 42 33 23 11 12 22 14 6 3 1 4 14 7 6 6 4 3 4 2 3 4 5 5 7 17 22 24 24 24 24 20 16 25 22 19 18 21 26 32 32
89 83 66 47 30 18 19 20 16 20 11 7 9 8 7 17 8 5 6 5 5 5 4 5 4 3 8 18 31 37 36 29 27 25 25 27 25 25 22 18 20 21 30 29
92 78 41 17 27 15 22 15 11 14 11 12 12 10 5 16 13 7 7 3 2 2 5 2 4 7 23 25 27 36 39 34 36 39 33 31 30 24 22 20 21 21 25 27
86 30 15 37 46 22 12 7 7 8 5 15 12 14 11 17 8 7 11 5 2 2 6 6 5 7 13 40 36 41 37 34 36 32 24 23 22 25 25 24 23 22 21 21
59 40 56 51 16 8 7 5 1 7 9 18 20 13 12 14 11 8 9 4 4 6 7 5 6 7 15 44 46 44 40 39 40 37 28 29 28 27 25 24 25 27 26 25
74 23 17 14 10 5 15 15 8 5 24 28 23 13 13 12 8 11 6 6 8 5 3 7 9 13 31 49 49 45 42 45 45 40 35 33 33 31 26 26 27 26 27 29
17 19 13 13 8 11 11 8 8 15 18 53 41 21 10 9 7 7 9 4 4 2 3 12 7 31 42 53 48 42 42 44 42 39 39 37 34 34 33 31 29 28 28 25
13 16 13 12 11 7 16 24 26 23 56 61 27 16 9 4 7 1 8 6 8 13 10 7 15 26 45 59 56 48 47 49 48 47 44 41 38 34 33 32 29 27 25 24
16 12 10 12 12 5 19 24 26 55 67 31 12 10 6 3 10 6 15 12 12 8 7 10 16 29 44 52 50 43 42 44 45 44 42 39 36 33 31 31 30 29 27 24
7 5 10 11 9 22 24 30 34 70 43 7 12 10 13 10 5 5 9 11 7 12 17 14 17 29 43 48 47 45 46 47 46 45 43 39 37 34 32 31 32 32 29 26
Wind_Direction_850mb
227 229 235 249 280 316 329 344 326 334 353 34 50 24 281 306 292 302 285 273 282 288 318 294 303 290 315 346 348 329 324 294 290 298 293 253 56 2 301 272 189 226 220 251
223 223 228 238 268 314 337 318 300 330 2 61 0 298 268 257 298 311 298 286 258 315 341 319 300 301 329 316 338 330 354 300 301 326 182 179 10 349 326 300 231 232 336 353
220 219 221 225 242 300 333 327 345 351 61 80 335 353 320 307 271 277 274 286 307 360 293 258 280 301 303 320 309 283 340 260 260 267 281 304 335 359 2 8 37 337 27 354
215 216 216 216 222 262 321 24 272 340 355 51 337 111 343 293 334 252 319 314 124 329 305 303 247 289 312 310 288 348 315 280 280 279 276 271 27 4 16 20 1 41 0 20
213 213 214 211 213 234 252 246 220 115 110 310 316 112 275 310 325 280 297 214 299 312 279 276 296 313 314 293 318 331 321 276 315 291 353 88 53 16 13 22 11 7 25 36
212 211 211 206 210 218 229 216 234 263 121 106 11 352 326 306 335 272 260 313 315 305 291 309 290 281 276 268 294 310 295 320 326 290 326 318 23 13 4 21 24 355 21 25
210 209 208 204 208 217 228 227 218 142 266 225 207 329 312 291 300 274 297 319 326 297 308 312 295 263 257 263 269 267 294 317 283 296 321 59 16 12 353 352 26 14 11 10
207 208 205 204 209 216 228 219 196 173 232 227 301 295 298 304 299 280 299 323 319 318 323 336 341 349 7 314 255 312 273 296 314 318 359 352 6 357 341 348 30 11 8 11
204 205 204 204 209 216 221 218 211 201 146 204 270 332 313 307 325 321 294 339 347 356 285 351 11 13 297 326 335 311 331 246 294 323 47 26 350 342 334 242 36 357 8 20
203 202 201 204 210 213 218 219 210 201 172 251 176 89 339 315 314 264 327 344 350 8 334 25 27 331 190 356 334 333 336 356 23 7 53 54 353 341 0 53 331 345 15 27
206 196 198 204 212 210 214 222 215 212 190 242 234 236 232 295 29 348 333 347 17 359 35 13 6 344 318 304 308 333 355 341 8 3 35 17 352 351 47 349 359 14 31 37
201 196 202 201 206 209 213 218 219 220 224 217 233 247 241 221 220 19 10 99 51 10 325 23 310 353 352 302 352 350 31 18 1 31 59 5 12 34 28 28 35 32 40 51
194 201 200 194 203 206 214 220 227 208 238 177 207 237 228 207 186 155 22 75 72 88 11 353 308 310 314 349 15 292 112 16 50 163 58 45 35 40 44 41 50 63 65 70
199 198 190 193 201 206 211 220 231 207 201 127 226 222 221 207 176 169 166 166 10 356 34 353 314 341 46 333 303 299 315 328 11 82 94 180 19 30 38 61 69 71 79 81
198 188 187 195 198 202 208 222 232 217 230 142 180 238 237 224 186 178 176 201 249 340 236 217 272 341 330 232 272 247 10 77 19 102 84 88 359 28 68 75 71 77 83 86
185 181 188 193 194 196 198 223 231 217 213 166 98 225 11 131 160 171 168 202 242 228 243 240 258 273 261 307 275 152 136 129 137 155 125 113 97 95 101 95 89 93 95 92
176 182 183 188 193 192 189 205 223 191 185 180 88 186 174 145 150 170 184 234 246 208 241 233 243 223 198 242 239 173 180 174 153 147 146 141 182 144 109 103 100 103 102 100
174 178 179 186 186 192 207 216 147 163 180 174 137 136 168 168 173 173 173 186 219 246 235 254 267 282 188 246 227 178 178 175 174 174 187 177 157 149 133 119 105 114 107 101
175 176 172 171 178 187 202 194 199 199 211 179 198 169 196 162 167 158 145 181 223 237 229 170 192 231 226 216 182 191 189 181 178 166 161 158 160 156 149 144 138 138 123 123
169 160 153 158 158 170 162 167 193 206 214 214 218 154 131 160 167 172 139 170 238 204 236 210 158 256 250 211 198 192 189 190 181 173 173 177 178 170 159 150 148 145 131 124
158 157 140 147 145 144 167 158 189 183 247 204 174 173 141 171 146 168 197 190 152 78 254 127 265 277 218 198 192 183 185 184 183 183 186 176 177 172 168 164 158 147 131 123
163 149 126 129 160 141 129 198 173 205 222 167 154 149 146 146 148 134 161 135 44 237 142 73 273 248 191 181 180 181 187 189 187 186 185 178 176 174 173 170 166 157 150 147
133 118 150 155 156 133 180 195 231 218 174 175 152 136 149 131 143 95 119 115 221 140 70 231 229 179 179 179 183 184 185 187 189 190 186 184 179 174 170 168 160 159 160 158
135 144 149 195 180 233 192 184 155 151 165 154 141 118 134 140 119 139 105 237 69 355 264 235 235 203 184 180 182 185 184 184 184 185 181 178 178 174 172 172 170 166 165 161
136 160 197 194 175 147 156 140 132 132 151 145 122 98 134 123 95 111 103 44 251 204 231 230 200 187 183 183 183 182 182 182 181 180 178 179 179 179 176 170 171 167 170 171
159 179 111 128 131 143 153 154 142 150 152 141 127 125 94 198 134 113 206 145 225 243 214 226 193 186 183 183 182 182 181 182 179 178 182 182 179 178 178 175 176 176 177 181
169 118 170 155 102 169 164 160 160 158 157 154 132 120 193 118 72 246 197 205 220 183 183 185 185 188 182 182 184 183 182 183 182 182 182 181 183 184 186 189 188 186 183 184